Location: North Evanston
(42.0634°N, 87.6976°W)
Time: 20:44:46
(UTC+00:00)

Vanguard 2 Rocket - Pass Details

Date: 19 May 2026
Orbit: 553 x 3286 km, 32.9° (Epoch: 6 June)

Event Time Altitude Azimuth Distance (km) Brightness Sun altitude
Rises 13:15:05 0° 192° (SSW) 4,034 10.1 29.2°
Reaches altitude 10° 13:18:35 10° 173° (S) 3,474 10.0 29.9°
Maximum altitude 13:24:28 19° 133° (SE) 3,485 10.8 31.0°
Drops below altitude 10° 13:32:24 10° 96° (E) 4,929 12.2 32.5°
Sets 13:38:52 0° 82° (E) 6,470 12.3 33.7°
